User: anonymous   Login
Location: Poughquag
(41.6090°N, 73.6820°W)
Time: 19:11:40
(UTC-04:00)
Language:

Hubble Space Telescope - Orbit

View from above orbital plane
View from above orbital plane
View from above satellite
View from above satellite

Ground track
Ground track

The orbit data is extracted from the following two-line orbital elements,

1 20580U 90037B   20184.19846487 +.00000325 +00000-0 +87283-5 0  9999
2 20580 028.4684 222.1406 0002417 249.0457 348.5906 15.09402157458197
Epoch (UTC): 02 July 2020 04:45:47
Eccentricity: 0.0002417
inclination: 28.4684°
perigee height: 536 km
apogee height: 540 km
right ascension of ascending node: 222.1406°
argument of perigee: 249.0457°
revolutions per day: 15.09402157
mean anomaly at epoch: 348.5906°
orbit number at epoch: 45819

The dashed part of the orbit path shows where the satellite is in the earth's shadow,  

DLR